User: anonymous   Login
Location: Young's Pond
(41.2695°N, 72.7766°W)
Time: 23:05:32
(UTC-04:00)
Language:

Spot 4 - Orbit

View from above orbital plane
View from above orbital plane
View from above satellite
View from above satellite

Ground track
Ground track

The orbit data is extracted from the following two-line orbital elements,

1 25260U 98017A   15211.24031317  .00000025  00000-0  17289-4 0  9999
2 25260 098.4140 282.6831 0012362 221.2109 138.8161 14.53295880901928
Epoch (UTC): 30 July 2015 05:46:03
Eccentricity: 0.0012362
inclination: 98.4140°
perigee height: 706 km
apogee height: 723 km
right ascension of ascending node: 282.6831°
argument of perigee: 221.2109°
revolutions per day: 14.53295880
mean anomaly at epoch: 138.8161°
orbit number at epoch: 90192

The dashed part of the orbit path shows where the satellite is in the earth's shadow,  

DLR